Tracking 29892 objects as of 21-Nov-2024
HD Live streaming from Space Station
objects crossing your sky now

IRIDIUM 33 DEB

Track IRIDIUM 33 DEB now!
10-day predictions


NORAD ID: 36493
Int'l Code: 1997-051WK
Perigee: 700.1 km
Apogee: 714.8 km
Inclination: 86.4 °
Period: 98.8 minutes
Semi major axis: 7078 km
RCS: 0.0102 m2 (small)
Launch date: September 14, 1997
Source: United States (US)
Launch site: TYURATAM MISSILE AND SPACE COMPLEX (TTMTR)

Note: This is SATELLITE DEBRIS
Your satellite tracking list
Your tracking list is empty




NASA's NSSDC Master Catalog

Two Line Element Set (TLE):
1 36493U 97051WK  24324.33729116  .00007395  00000-0  16112-2 0  9991
2 36493  86.3620 183.2134 0010431 231.5018 128.5256 14.57795956688440
Source of the keplerian elements: AFSPC